Weather History for Glencoe, MN

Change the Weather History Date:

Saturday, April 6, 2013

  Actual Average (KHCD) Record (KHCD)
Temperature  
Mean Temperature 43 °F -  
Max Temperature 52 °F 53 °F 80 °F (1991)
Min Temperature 34 °F 31 °F 5 °F (1979)
Degree Days  
Heating Degree Days 22    
Moisture  
Dew Point 36 °F    
Average Humidity 79    
Maximum Humidity 97    
Minimum Humidity 64    
Precipitation  
Precipitation 0.09 in - - ()
Sea Level Pressure  
Sea Level Pressure 29.63 in    
Wind  
Wind Speed 13 mph (East)    
Max Wind Speed 18 mph    
Max Gust Speed 22 mph    
Visibility 10 miles    
Events Rain    
Averages and records for this station are not official NWS values.
T = Trace of Precipitation, MM = Missing Value Source: NWS Daily Summary

Daily Weather History Graph

Daily Weather History Graph

Search for Another Location

Airport:

Trip Planner

Search our weather history database for the weather conditions in past years. The results will help you decide how hot, cold, wet, or windy it might be!

Date:

Astronomy

Apr. 06, 2013 Rise Set
Actual Time 6:47 AM CDT 7:50 PM CDT
Civil Twilight 6:17 AM CDT 8:20 PM CDT
Nautical Twilight 5:42 AM CDT 8:56 PM CDT
Astronomical Twilight 5:04 AM CDT 9:34 PM CDT
Moon 4:40 AM CDT (4/6) 4:12 PM CDT (4/6)
Length of Visible Light 14h 02m
Length of Day
13h 03m
Waning Crescent, 15% of the Moon is Illuminated
Apr 6
Waning Crescent
Apr 10
New
Apr 18
First Quarter
Apr 25
Full
May 2
Last Quarter

Hourly Weather History & Observations

Time (CDT) Temp. Windchill Dew Point Humidity Pressure Visibility Wind Dir Wind Speed Gust Speed Precip Events Conditions
12:14 AM 34.9 °F 24.2 °F 31.6 °F 88% 29.82 in 10.0 mi East 18.4 mph - N/A   Scattered Clouds
12:34 AM 35.1 °F 25.2 °F 31.6 °F 87% 29.81 in 10.0 mi East 16.1 mph - N/A   Clear
12:54 AM 35.2 °F 24.7 °F 31.6 °F 87% 29.80 in 10.0 mi East 18.4 mph - N/A   Clear
1:14 AM 35.2 °F 25.8 °F 31.6 °F 87% 29.79 in 10.0 mi East 15.0 mph - N/A   Scattered Clouds
1:34 AM 35.2 °F 26.2 °F 31.6 °F 87% 29.78 in 10.0 mi East 13.8 mph - N/A   Clear
1:55 AM 36.0 °F 27.1 °F 31.3 °F 83% 29.76 in 10.0 mi East 13.8 mph - N/A   Scattered Clouds
2:14 AM 37.4 °F 28.5 °F 30.9 °F 77% 29.75 in 10.0 mi ESE 15.0 mph - N/A   Scattered Clouds
2:34 AM 38.3 °F 29.7 °F 30.9 °F 75% 29.74 in 10.0 mi ESE 15.0 mph - N/A   Scattered Clouds
2:55 AM 39.2 °F 30.2 °F 30.9 °F 72% 29.72 in 10.0 mi ESE 17.3 mph 21.9 mph N/A   Mostly Cloudy
3:14 AM 39.2 °F 30.8 °F 31.1 °F 73% 29.71 in 10.0 mi ESE 15.0 mph - N/A   Overcast
3:34 AM 39.4 °F 31.4 °F 31.3 °F 73% 29.70 in 10.0 mi ESE 13.8 mph - N/A   Overcast
3:54 AM 39.7 °F 31.2 °F 31.6 °F 73% 29.68 in 10.0 mi ESE 16.1 mph 20.7 mph N/A   Overcast
4:14 AM 40.1 °F 32.4 °F 32.0 °F 73% 29.67 in 10.0 mi ESE 13.8 mph 19.6 mph N/A   Overcast
4:35 AM 40.5 °F 32.8 °F 32.0 °F 72% 29.66 in 10.0 mi ESE 13.8 mph - N/A   Scattered Clouds
4:54 AM 40.6 °F 32.7 °F 32.0 °F 71% 29.66 in 10.0 mi ESE 15.0 mph 20.7 mph N/A   Mostly Cloudy
5:14 AM 41.4 °F 34.0 °F 32.0 °F 69% 29.65 in 10.0 mi ESE 13.8 mph 20.7 mph N/A   Overcast
5:34 AM 41.0 °F 33.5 °F 32.0 °F 70% 29.64 in 10.0 mi ESE 13.8 mph 19.6 mph N/A   Overcast
5:54 AM 40.5 °F 33.6 °F 32.0 °F 72% 29.65 in 10.0 mi ESE 11.5 mph - N/A   Overcast
6:15 AM 40.5 °F 32.1 °F 32.0 °F 72% 29.63 in 10.0 mi ESE 16.1 mph - N/A   Overcast
6:34 AM 39.6 °F 31.0 °F 32.0 °F 74% 29.62 in 10.0 mi ESE 16.1 mph 19.6 mph N/A   Mostly Cloudy
6:55 AM 39.6 °F 31.7 °F 32.0 °F 74% 29.62 in 10.0 mi ESE 13.8 mph - N/A   Overcast
7:14 AM 39.2 °F 31.6 °F 31.6 °F 74% 29.63 in 10.0 mi ESE 12.7 mph - N/A   Overcast
7:34 AM 39.2 °F 30.8 °F 32.0 °F 75% 29.61 in 10.0 mi ESE 15.0 mph - N/A   Overcast
7:54 AM 39.2 °F 31.6 °F 32.0 °F 75% 29.60 in 10.0 mi ESE 12.7 mph - N/A   Overcast
8:14 AM 39.4 °F 31.4 °F 32.0 °F 75% 29.60 in 10.0 mi ESE 13.8 mph 18.4 mph N/A   Overcast
8:34 AM 39.9 °F 32.5 °F 32.0 °F 73% 29.59 in 10.0 mi ESE 12.7 mph - N/A   Mostly Cloudy
8:54 AM 40.6 °F 33.0 °F 32.2 °F 72% 29.58 in 10.0 mi ESE 13.8 mph - N/A   Scattered Clouds
9:14 AM 41.4 °F 33.3 °F 32.7 °F 71% 29.57 in 10.0 mi ESE 16.1 mph 20.7 mph N/A   Scattered Clouds
9:34 AM 43.3 °F 36.1 °F 33.8 °F 69% 29.55 in 10.0 mi ESE 15.0 mph - N/A   Clear
9:54 AM 44.6 °F 38.4 °F 34.3 °F 67% 29.55 in 10.0 mi SE 12.7 mph - N/A   Clear
10:15 AM 46.6 °F - 36.1 °F 67% 29.53 in 10.0 mi SE 13.8 mph - N/A   Scattered Clouds
10:34 AM 47.5 °F - 36.3 °F 65% 29.52 in 10.0 mi SE 13.8 mph 17.3 mph N/A   Scattered Clouds
10:55 AM 47.7 °F - 37.6 °F 68% 29.52 in 10.0 mi ESE 10.4 mph - N/A   Scattered Clouds
11:14 AM 49.6 °F - 39.7 °F 69% 29.52 in 10.0 mi SE 10.4 mph 16.1 mph N/A   Scattered Clouds
11:34 AM 52.0 °F - 40.3 °F 64% 29.53 in 10.0 mi SE 10.4 mph 16.1 mph N/A   Clear
11:54 AM 51.1 °F - 41.5 °F 70% 29.53 in 10.0 mi SSE 9.2 mph - N/A   Scattered Clouds
12:14 PM 51.1 °F - 41.5 °F 70% 29.51 in 10.0 mi SE 5.8 mph - N/A   Overcast
12:35 PM 50.0 °F - 43.3 °F 78% 29.51 in 5.0 mi Calm Calm - 0.01 in Rain Light Rain
12:54 PM 50.2 °F - 45.3 °F 83% 29.51 in 10.0 mi Calm Calm - 0.01 in   Overcast
1:15 PM 50.0 °F - 45.7 °F 85% 29.51 in 10.0 mi Calm Calm - 0.01 in   Overcast
1:34 PM 52.0 °F - 45.7 °F 79% 29.51 in 10.0 mi East 3.5 mph - 0.01 in Rain Light Rain
1:54 PM 52.0 °F - 46.4 °F 81% 29.51 in 10.0 mi Calm Calm - 0.01 in   Overcast
2:15 PM 50.5 °F - 46.0 °F 85% 29.51 in 7.0 mi NW 5.8 mph - N/A   Drizzle
2:34 PM 48.9 °F - 45.5 °F 88% 29.51 in 5.0 mi NNW 6.9 mph - 0.01 in Rain Rain
2:54 PM 47.3 °F - 45.1 °F 92% 29.50 in 4.0 mi North 4.6 mph - 0.05 in Rain Rain
3:14 PM 46.4 °F 42.4 °F 45.1 °F 95% 29.51 in 5.0 mi NW 8.1 mph - 0.01 in Rain Light Rain
3:35 PM 45.9 °F 41.2 °F 45.0 °F 97% 29.51 in 5.0 mi NNW 9.2 mph - 0.02 in Rain Light Rain
3:54 PM 44.2 °F 37.6 °F 43.3 °F 97% 29.54 in 7.0 mi NW 13.8 mph 18.4 mph 0.02 in   Overcast
4:14 PM 42.8 °F 35.4 °F 41.4 °F 95% 29.55 in 10.0 mi NW 15.0 mph 19.6 mph N/A   Overcast
4:34 PM 43.2 °F 35.6 °F 39.6 °F 87% 29.56 in 10.0 mi NW 16.1 mph - N/A   Overcast
4:54 PM 42.8 °F 34.8 °F 38.7 °F 85% 29.57 in 10.0 mi NNW 17.3 mph 20.7 mph N/A   Overcast
5:14 PM 43.2 °F 36.6 °F 39.2 °F 86% 29.59 in 10.0 mi NNW 12.7 mph 20.7 mph N/A   Overcast
5:34 PM 44.1 °F 36.8 °F 38.7 °F 81% 29.60 in 10.0 mi NW 16.1 mph 20.7 mph N/A   Mostly Cloudy
5:54 PM 43.7 °F 37.7 °F 37.8 °F 80% 29.61 in 10.0 mi NW 11.5 mph - N/A   Overcast
6:15 PM 42.8 °F 35.4 °F 36.5 °F 78% 29.63 in 10.0 mi NW 15.0 mph 18.4 mph N/A   Overcast
6:34 PM 42.1 °F 34.5 °F 35.6 °F 78% 29.64 in 10.0 mi NNW 15.0 mph - N/A   Overcast
6:55 PM 41.7 °F 34.1 °F 35.4 °F 78% 29.65 in 10.0 mi NW 15.0 mph 19.6 mph N/A   Overcast
7:14 PM 41.0 °F 32.8 °F 34.9 °F 79% 29.66 in 10.0 mi NW 16.1 mph 21.9 mph N/A   Overcast
7:34 PM 40.1 °F 33.6 °F 34.7 °F 81% 29.68 in 10.0 mi NW 10.4 mph - N/A   Overcast
7:54 PM 39.4 °F 33.2 °F 34.7 °F 83% 29.68 in 10.0 mi WNW 9.2 mph - N/A   Mostly Cloudy
8:14 PM 39.6 °F 33.0 °F 34.7 °F 83% 29.68 in 10.0 mi NW 10.4 mph - N/A   Overcast
8:35 PM 39.4 °F 32.7 °F 34.7 °F 83% 29.70 in 10.0 mi WNW 10.4 mph - N/A   Overcast
8:54 PM 39.4 °F 33.8 °F 34.2 °F 82% 29.70 in 10.0 mi WNW 8.1 mph - N/A   Overcast
9:15 PM 38.7 °F 32.9 °F 34.2 °F 84% 29.71 in 10.0 mi WNW 8.1 mph - N/A   Overcast
9:34 PM 38.7 °F 30.9 °F 34.0 °F 83% 29.73 in 10.0 mi WNW 12.7 mph - N/A   Overcast
9:54 PM 38.7 °F 31.4 °F 33.8 °F 83% 29.73 in 10.0 mi NW 11.5 mph - N/A   Overcast
10:14 PM 38.3 °F 31.4 °F 33.8 °F 84% 29.73 in 10.0 mi WNW 10.4 mph - N/A   Overcast
10:34 PM 37.9 °F 32.7 °F 33.8 °F 85% 29.75 in 10.0 mi West 6.9 mph - N/A   Overcast
10:54 PM 37.8 °F 30.2 °F 33.8 °F 86% 29.75 in 10.0 mi WNW 11.5 mph - N/A   Overcast
11:14 PM 37.4 °F 32.1 °F 33.8 °F 87% 29.75 in 10.0 mi WNW 6.9 mph - N/A   Overcast
11:35 PM 37.0 °F 29.8 °F 33.8 °F 88% 29.76 in 10.0 mi West 10.4 mph - N/A   Overcast
11:54 PM 36.9 °F 29.1 °F 33.4 °F 87% 29.77 in 10.0 mi WNW 11.5 mph - N/A   Overcast